Flag for Canada Weather past 2 weeks in Edmonton, Alberta, Canada

Now
77 °F

Sunny.


Feels Like: 78 °F
Forecast: 56 / 73 °F
Wind: 9 mph from Northwest

Location: Edmonton Municipal

Current Time: Aug 27, 2014 at 5:33:29 PM

Latest Report: Aug 27, 2014 at 5:00 PM


Visibility: 9 mi

Pressure: 29.86 "Hg

Humidity: 39%

Dew point: 50 °F

Location of EdmontonLocation

Historic Weather in Edmonton — Graph

°F

Edmonton temperature yesterday

Maximum temperature yesterday: 79 °F (at 5:00 PM)
Minimum temperature yesterday: 55 °F (at 5:00 AM)
Average temperature yesterday: 68 °F

Past Weeks' High & Low Weather Summary

 TemperatureHumidityPressure
High84 °F (Aug 12, 4:00 PM)100% (Aug 14, 4:00 AM)30.41 "Hg (Aug 14, 4:00 AM)
Low41 °F (Aug 23, 7:00 AM)29% (Aug 14, 5:00 PM)29.67 "Hg (Aug 19, 6:00 PM)
Average65 °F66%29.98 "Hg
* Reported Aug 12 4:00 PM — Aug 27 4:00 PM, Edmonton, Weather by CustomWeather, © 2014

Note: Actual official high and low records may vary slightly from our data, if they occured in-between our weather recording intervals... More about our weather records

Advertising

Edmonton weather history for previous 24 hours

 ConditionsComfort  
Time TempWeatherWind HumidityBarometerVisibility
4:00 PM
Aug 27
75 °FSunny.13 mph44%29.87 "Hg9 mi
3:00 PM75 °FSunny.10 mph44%29.88 "Hg9 mi
2:00 PM75 °FSunny.12 mph44%29.88 "Hg9 mi
1:00 PM75 °FSunny.13 mph44%29.89 "Hg9 mi
12:00 PM73 °FSunny.10 mph44%29.88 "Hg9 mi
11:00 AM72 °FSunny.10 mph53%29.88 "Hg9 mi
10:00 AM70 °FSunny.8 mph53%29.88 "Hg9 mi
9:00 AM64 °FSunny.8 mph68%29.88 "Hg9 mi
8:00 AM59 °FPassing clouds.7 mph82%29.88 "Hg9 mi
7:00 AM59 °FPassing clouds.7 mph82%29.86 "Hg9 mi
6:00 AM59 °FPassing clouds.3 mph77%29.86 "Hg9 mi
5:00 AM59 °FClear.3 mph77%29.84 "Hg9 mi
4:00 AM61 °FClear.5 mph72%29.84 "Hg9 mi
3:00 AM59 °FClear.3 mph72%29.84 "Hg9 mi
2:00 AM63 °FPassing clouds.5 mph64%29.83 "Hg9 mi
1:00 AM64 °FPassing clouds.2 mph60%29.83 "Hg9 mi
12:00 AM68 °FOvercast.3 mph56%29.84 "Hg9 mi
11:00 PM
Aug 26
70 °FClear.No wind50%29.84 "Hg9 mi
10:00 PM73 °FClear.3 mph44%29.83 "Hg9 mi
9:00 PM75 °FSunny.3 mph41%29.83 "Hg9 mi
8:00 PM75 °FSunny.3 mph41%29.83 "Hg9 mi
7:00 PM79 °FSunny.7 mph37%29.84 "Hg9 mi
6:00 PM77 °FPassing clouds.9 mph39%29.85 "Hg9 mi
5:00 PM79 °FSunny.13 mph39%29.86 "Hg9 mi
Weather by CustomWeather, © 2014

See weather overviewHow to use our weather pages